Theta_e
339 349 362 359 358 357 355 353 354 353 352 353 354 355 355 356 356 354 355 354 356 355 354 354 354 354 353 352 351 350 348 348 348 348 348 348 346 346 344 344 344 341 343
344 352 362 361 359 357 356 352 353 353 352 354 355 355 355 356 355 356 355 355 356 354 355 354 355 354 353 352 351 350 350 349 348 347 346 347 346 345 344 343 344 344 344
349 351 358 362 359 356 356 352 353 352 352 353 354 355 355 356 355 355 356 356 355 355 354 354 353 351 350 350 350 349 349 348 347 346 345 340 341 343 345 344 343 343 344
351 351 357 362 359 356 355 352 352 353 353 353 354 354 355 355 355 355 355 355 354 354 353 351 350 349 348 348 348 349 349 349 350 351 349 344 341 345 345 346 344 343 343
351 351 357 361 359 356 354 352 352 352 353 352 354 354 355 355 355 356 355 354 353 352 350 349 347 347 347 347 347 348 348 349 351 349 343 346 347 344 346 345 344 343 341
349 351 360 359 357 356 354 352 351 352 353 352 354 354 354 354 355 355 355 353 352 351 348 347 346 345 345 346 348 349 350 350 352 346 345 345 347 347 348 347 346 344 341
346 349 355 356 355 355 353 352 352 353 353 352 353 354 353 354 354 354 353 352 352 350 348 347 347 349 350 350 351 352 352 351 349 346 347 347 347 350 351 349 347 345 344
345 347 352 356 354 355 353 352 352 352 351 353 353 353 353 354 354 353 353 352 351 350 350 349 352 353 353 352 352 353 354 352 349 347 346 346 346 350 351 351 350 348 345
346 345 345 348 350 353 355 353 352 353 350 354 354 354 354 354 353 353 353 352 351 352 352 352 353 354 354 353 353 353 354 353 351 349 347 348 347 349 351 352 351 348 346
343 345 340 344 345 345 347 352 351 351 353 353 353 353 354 354 353 353 354 353 352 353 353 354 355 354 354 353 353 354 355 355 352 351 350 347 349 351 352 353 351 349 348
339 340 340 341 341 343 344 347 350 350 352 353 353 353 353 350 348 351 351 352 351 352 353 355 355 355 355 355 353 353 353 349 350 351 349 347 350 352 354 355 355 352 351
334 337 342 340 339 341 347 343 344 347 347 347 348 347 348 346 345 348 349 351 352 353 354 356 356 356 355 348 345 345 345 346 347 350 349 350 351 354 356 357 354 352 351
332 336 340 341 341 341 344 341 342 343 344 345 345 345 345 346 343 344 343 343 343 346 346 347 347 346 344 341 340 343 344 346 346 348 348 353 355 356 356 355 353 352 352
329 334 338 340 341 341 341 342 344 344 343 343 345 344 343 341 340 339 339 340 340 341 341 342 343 344 342 340 339 342 346 349 347 345 347 354 354 355 353 354 352 352 350
327 330 333 337 338 340 338 340 342 342 343 344 344 343 342 339 338 338 337 337 338 340 341 341 341 341 340 340 346 347 347 349 348 341 348 355 353 354 353 353 352 350 347
334 333 331 334 336 336 336 335 337 339 340 341 341 342 342 340 338 335 335 335 337 339 340 340 340 340 340 345 347 346 347 348 348 341 348 352 353 353 352 353 351 347 347
334 335 331 333 333 333 333 333 335 335 338 337 338 338 339 339 337 337 334 333 335 339 339 340 340 341 346 346 344 343 343 341 349 346 349 349 352 353 351 352 348 347 348
326 329 334 338 333 331 330 332 334 332 333 334 335 336 338 338 339 337 337 337 340 339 339 340 343 344 345 342 341 339 335 335 340 347 348 348 348 348 350 348 351 352 350
319 322 326 332 333 332 332 333 334 333 332 334 335 334 337 338 340 339 339 340 340 340 342 344 345 344 342 342 341 330 330 329 332 338 338 341 341 343 345 347 349 350 349
310 310 315 321 326 331 332 334 334 333 334 334 335 336 338 339 341 341 340 340 340 340 342 344 344 344 341 341 328 327 326 331 332 329 328 327 330 341 342 345 346 346 347
306 305 306 309 311 320 330 332 332 332 334 334 336 338 339 340 342 341 340 340 341 340 342 344 342 341 338 336 325 325 323 323 321 320 321 326 334 338 338 339 339 343 339
301 302 302 303 307 308 311 322 333 335 336 338 337 338 339 341 342 341 340 339 341 341 343 343 342 336 336 332 327 322 320 322 319 319 318 318 319 324 333 334 336 336 329
296 297 299 300 304 304 307 310 318 330 332 332 331 335 337 342 344 341 341 340 340 341 341 343 342 336 334 330 324 326 315 316 314 318 316 313 314 313 316 321 331 334 327
295 297 296 298 300 301 302 305 308 313 315 323 331 333 334 337 339 344 342 342 342 342 342 343 344 342 334 329 323 321 319 317 312 310 315 314 312 313 318 321 321 329 324
295 295 296 296 297 299 298 301 303 305 309 316 319 324 329 334 337 336 337 343 343 343 343 343 344 341 334 331 323 320 316 312 313 311 308 310 309 310 314 323 328 324 322
294 294 294 294 294 295 296 297 298 299 303 305 307 310 320 324 323 328 334 338 342 345 344 344 345 341 336 327 323 318 314 314 309 307 305 306 306 309 311 316 316 315 316
Wind_Speed
5 7 17 16 15 15 16 16 15 15 15 15 16 16 17 15 15 16 14 14 13 14 14 14 13 12 12 12 12 11 10 10 9 9 9 6 8 8 9 9 9 8 10
11 9 18 15 16 16 16 15 15 15 15 14 15 16 16 15 16 15 14 12 12 14 13 12 11 10 10 10 9 7 7 6 6 6 7 7 5 5 7 7 7 6 8
14 9 14 16 17 16 15 15 14 15 15 14 15 15 15 14 14 13 11 11 10 11 11 10 9 8 7 6 5 4 3 2 2 2 4 3 1 4 5 5 6 6 6
12 10 10 17 16 16 14 14 14 13 14 13 14 14 14 13 13 11 9 9 9 8 8 7 7 5 4 4 3 1 1 1 2 4 3 4 4 5 5 5 5 5 6
14 5 7 16 16 16 16 15 14 13 13 13 13 13 13 12 11 9 9 7 7 5 5 4 4 3 2 1 2 2 3 3 4 2 3 4 5 6 7 6 5 5 5
13 5 11 16 16 16 15 14 14 13 13 13 13 12 12 11 9 8 8 6 5 4 3 1 1 1 1 3 4 4 5 5 5 3 4 5 7 9 9 8 7 6 5
11 4 9 16 16 15 15 14 13 12 12 12 12 12 11 10 8 8 6 5 4 3 2 2 3 4 4 5 6 7 7 8 5 3 4 4 4 12 13 11 8 6 7
12 4 6 14 15 12 14 14 13 13 13 12 12 11 11 10 9 8 6 5 5 4 5 5 6 7 6 6 7 9 8 10 7 4 4 3 4 10 11 11 11 10 9
6 5 2 4 12 13 11 12 13 12 13 11 10 10 10 10 8 8 6 6 6 6 6 7 7 7 8 7 8 10 11 11 8 4 5 3 3 9 9 10 10 10 10
8 7 3 3 5 5 6 13 13 13 12 12 11 11 10 9 9 8 6 6 7 8 9 9 8 8 8 8 8 9 12 13 7 5 4 4 6 8 10 10 11 11 11
9 9 5 6 5 5 5 7 12 14 14 12 11 11 7 3 4 5 5 7 9 10 11 11 10 10 9 8 8 10 12 5 5 2 2 7 7 8 11 11 10 12 13
11 12 11 7 7 6 5 5 6 7 6 5 4 5 3 4 3 4 6 9 10 11 12 12 12 11 10 4 3 6 3 6 4 3 2 7 8 8 12 9 8 8 7
12 8 13 12 9 10 7 5 4 4 3 4 6 6 4 3 3 3 2 3 3 7 4 6 6 4 6 5 5 3 5 4 3 3 2 6 9 10 8 7 7 5 3
10 12 11 10 10 11 6 7 8 7 5 5 7 7 5 4 4 4 3 3 4 3 5 4 4 5 6 6 6 6 6 4 2 2 1 5 7 6 6 5 4 2 3
6 6 6 5 5 6 6 3 6 8 8 8 7 7 6 5 5 4 5 4 4 3 4 5 4 5 6 6 5 5 5 4 4 2 1 6 6 4 5 5 6 7 5
4 2 1 3 2 3 5 4 3 3 4 3 3 4 7 5 4 4 5 5 5 4 3 4 4 4 5 4 5 3 3 3 2 3 2 3 8 8 9 7 6 5 6
7 5 8 9 8 6 5 4 2 2 2 3 3 4 4 4 4 4 4 5 5 3 4 3 4 2 2 3 3 3 3 4 2 4 3 4 5 7 7 8 5 6 6
19 20 9 4 6 7 6 4 4 4 4 4 4 4 6 6 5 4 5 5 4 4 2 3 3 3 3 3 2 2 2 3 5 3 3 3 6 4 7 8 7 8 10
22 22 21 19 10 5 5 3 5 6 5 4 4 4 6 6 6 5 3 3 4 4 4 3 2 3 2 2 3 1 3 3 3 0 1 2 4 5 5 6 6 8 9
21 21 22 19 22 20 3 4 4 4 4 4 4 4 6 5 7 6 6 6 5 4 4 3 4 3 3 2 1 3 4 3 2 1 2 1 0 5 7 5 3 4 7
22 24 23 22 22 18 13 6 4 4 3 3 5 6 6 5 7 7 6 6 5 6 7 6 3 4 3 2 3 1 3 4 4 3 3 2 2 3 5 4 3 3 4
21 20 21 21 21 17 15 13 7 5 3 1 3 5 5 7 7 6 7 7 8 7 8 8 6 3 3 4 2 1 1 2 2 3 3 2 2 1 3 4 5 5 3
22 22 20 20 18 18 19 13 13 9 10 5 6 4 2 4 6 7 10 9 10 10 9 10 9 10 7 4 5 3 1 4 1 2 1 1 2 1 2 3 4 6 4
20 19 19 18 18 18 19 15 16 10 9 10 7 6 9 8 9 6 7 6 8 7 9 10 10 9 7 6 2 5 3 5 4 2 2 2 2 2 3 3 4 5 5
17 17 16 18 18 18 17 15 12 13 10 10 10 15 11 10 8 8 6 5 7 6 9 9 8 10 9 5 4 2 2 3 2 2 3 3 1 1 1 1 4 4 3
17 17 18 18 15 15 15 15 15 15 16 13 14 12 11 10 9 10 8 6 8 7 8 9 11 11 9 4 4 6 7 4 4 3 2 2 2 1 1 1 3 1 2
Wind_Direction
181 183 158 159 143 131 120 120 121 120 119 122 124 122 120 117 114 113 112 110 108 105 102 99 98 97 96 91 86 85 87 86 82 78 71 84 79 101 101 99 96 100 103
145 175 155 153 142 137 126 126 128 126 126 129 128 125 123 121 120 120 117 112 112 112 109 107 103 97 92 91 89 90 91 91 89 80 73 71 91 99 115 118 117 103 118
146 170 156 150 145 142 132 131 133 133 132 134 132 128 125 123 121 119 119 118 116 115 114 110 102 93 93 92 92 96 114 126 120 129 105 91 77 112 135 123 141 127 124
141 156 154 146 145 146 141 137 140 141 137 138 135 131 129 127 125 125 126 124 125 123 120 113 103 98 90 80 79 71 355 326 258 234 222 204 211 173 168 170 155 151 147
149 117 158 144 148 150 148 146 147 147 144 143 140 137 134 132 132 134 137 137 136 132 124 113 102 92 68 40 16 344 327 305 302 329 259 237 219 197 184 184 187 178 175
150 124 152 149 156 154 150 151 152 152 152 150 147 143 141 142 144 148 152 156 164 163 152 143 117 283 339 328 325 317 307 309 318 314 277 277 224 206 198 194 195 199 194
151 136 140 159 160 158 156 156 157 159 156 155 154 154 154 157 162 167 173 185 200 214 232 251 278 296 316 323 322 308 306 303 297 273 278 291 225 211 198 196 199 206 212
152 126 146 152 162 159 163 160 162 165 167 163 164 167 167 173 178 186 194 214 234 253 276 295 307 311 319 324 312 302 300 296 300 290 281 283 261 216 199 198 200 202 209
116 95 94 145 171 170 169 163 169 173 176 171 172 177 182 183 191 204 211 236 256 271 284 292 299 307 311 311 306 302 298 298 294 274 279 293 287 209 210 203 207 201 212
154 164 148 166 164 164 170 173 179 181 184 182 184 189 193 197 206 222 232 258 272 286 291 293 296 300 302 302 293 290 297 305 295 273 264 255 253 221 216 212 210 212 216
178 187 177 174 179 166 165 183 183 189 193 192 196 200 202 205 228 236 252 260 271 281 289 294 297 297 294 285 284 294 302 297 301 260 247 247 241 234 209 224 208 211 218
190 192 190 186 178 167 179 187 171 193 195 193 188 205 203 215 229 244 251 263 272 277 284 292 292 292 296 295 281 280 279 286 296 263 234 233 233 224 205 223 215 215 221
194 185 193 194 183 176 187 178 182 185 180 183 196 198 202 212 232 250 267 274 289 280 288 292 298 299 302 301 298 292 282 281 290 305 236 224 214 225 194 188 191 195 238
188 193 188 197 193 194 186 191 192 191 189 198 206 196 191 206 214 232 241 249 253 254 268 262 279 281 289 287 289 287 276 274 265 290 297 160 196 163 156 168 161 111 111
319 321 330 322 263 221 201 203 202 205 201 210 204 200 198 204 215 213 230 227 245 247 260 279 287 299 298 297 288 258 269 275 251 218 252 154 171 164 156 159 144 125 110
225 306 179 205 214 341 331 342 332 333 318 309 287 255 226 217 218 220 250 244 239 221 247 252 253 275 290 295 288 281 292 270 230 267 168 219 174 169 166 155 138 140 160
309 230 181 168 190 212 216 243 226 254 251 264 263 258 260 262 273 270 260 265 262 252 254 253 258 238 260 270 288 341 339 353 266 232 193 196 181 150 142 145 161 179 179
23 19 351 207 189 184 200 219 208 215 214 208 214 221 222 230 229 249 274 280 291 283 287 276 269 253 231 232 263 282 331 326 312 236 177 221 149 150 140 148 148 144 148
21 21 24 23 359 246 198 209 211 227 224 230 230 212 205 214 217 212 232 261 278 284 285 267 264 261 221 228 241 292 336 317 325 35 173 221 147 156 145 159 153 138 139
18 22 21 22 15 359 283 215 226 216 256 225 238 230 215 208 211 209 219 219 222 217 219 234 241 231 250 195 97 37 1 353 19 75 108 311 112 162 143 155 141 133 133
18 16 17 11 11 10 358 341 285 217 215 206 218 234 226 228 224 217 231 234 222 226 224 207 207 209 254 223 118 30 26 28 47 27 19 38 92 160 152 155 145 127 116
12 11 11 11 9 13 360 353 342 314 276 199 208 223 219 222 217 217 218 219 219 232 219 213 185 177 196 186 185 57 312 331 356 21 31 45 62 315 190 196 160 144 124
7 5 6 5 5 12 359 352 359 4 358 7 359 340 333 229 219 220 220 223 221 209 223 217 197 184 203 185 195 159 148 223 341 346 49 350 5 345 277 255 208 154 145
359 359 360 359 1 9 359 2 2 360 352 338 324 303 301 277 286 234 228 243 242 237 244 228 216 203 180 199 187 174 161 142 171 247 281 285 332 338 307 243 196 157 146
358 358 354 358 1 359 358 357 356 354 338 328 329 327 319 323 308 299 325 278 260 246 252 248 243 227 213 193 188 65 351 63 51 135 213 218 263 292 344 284 150 147 124
355 357 357 359 356 353 350 347 351 347 333 335 330 323 318 319 317 316 312 305 294 273 254 247 238 226 210 216 131 156 125 296 196 169 158 220 211 227 5 73 120 114 83